Regional Weather Roundup
Issued by NWS

Home | Current Version | Previous Version | Graphics & Text | Print | Product List | Glossary On
Versions: 1 2 3 4 5 6 7 8 9 10 11 12 13 14 15 16 17 18 19 20 21 22 23 24 25 26 27 28 29 30 31 32 33 34 35 36 37 38 39 40 41 42 43 44 45 46 47 48 49 50
000
ASUS43 KDMX 281907
RWRIA

WEATHER ROUNDUP FOR IOWA
NATIONAL WEATHER SERVICE DES MOINES IA
200 PM CDT SAT MAR 28 2015

NOTE: "FAIR" INDICATES FEW OR NO CLOUDS BELOW 12,000 FEET WITH NO
SIGNIFICANT WEATHER AND/OR OBSTRUCTIONS TO VISIBILITY.

* - THESE STATIONS ARE NOT NWS STATIONS...THUS NOT UNDER NWS
QUALITY CONTROL.  THEY ALSO DO NOT REPORT WEATHER SUCH
AS PRECIPITATION OR FOG.

IAZ001>003-012>014-020>022-031>034-043>046-282000-
   NORTHWEST IOWA

CITY           SKY/WX    TMP DP  RH WIND       PRES   REMARKS
CARROLL *      SUNNY     46  23  39 S15       30.15F
CHEROKEE *     MOSUNNY   46  27  46 SE16      30.13F
DENISON *      SUNNY     48  25  40 S13G21    30.12F
LE MARS *      SUNNY     48  25  40 S13G26    30.10F
ORANGE CITY *  SUNNY     48  23  37 S14       30.10F
SHELDON *      MOSUNNY   45  30  57 SE21G28   30.10F
SIOUX CITY     SUNNY     51  25  36 S16G25    30.11F
SPENCER        PTSUNNY   44  27  51 S17G25    30.14F
STORM LAKE *   PTSUNNY   45  27  49 SE14G23   30.13F
$$

IAZ055>058-069>071-079>083-090>094-282000-
   SOUTHWEST IOWA

CITY           SKY/WX    TMP DP  RH WIND       PRES   REMARKS
ATLANTIC *     MOSUNNY   46  25  42 S12G20    30.15F
AUDUBON *      SUNNY     48  25  40 SE13G20   30.16F
CLARINDA *     SUNNY     48  27  43 S9G18     30.17F
COUNCIL BLFS * SUNNY     50  28  43 SE13G20   30.13F
CRESTON *      MOSUNNY   45  27  49 SE16      30.17F
HARLAN  *      MOSUNNY   48  27  43 S16G24    30.17F
LAMONI         SUNNY     44  23  43 SE10G21   30.19F
RED OAK *      SUNNY     50  27  40 S12G20    30.15F
SHENANDOAH *   SUNNY     50  30  46 SE16      30.15F
$$

IAZ047>049-059>061-072>074-084-282000-
   CENTRAL IOWA

CITY           SKY/WX    TMP DP  RH WIND       PRES   REMARKS
AMES           SUNNY     46  16  30 SE14G20   30.20F
ANKENY *       SUNNY     46  16  29 S15       30.20F
CHARITON *     SUNNY     45  18  33 SE9G18    30.21S
DES MOINES     MOSUNNY   47  13  25 SE13      30.21F
GRINNELL*      SUNNY     43  12  28 S7        30.24S
KNOXVILLE *    SUNNY     45  12  26 SE12      30.21S
MARSHALLTOWN   SUNNY     43  15  32 SE13G18   30.22F
PELLA *        SUNNY     45  19  36 SE9       30.24F
PERRY *          N/A     46  19  34 SE12G22   30.18F
$$

IAZ004>006-015-016-023>025-035-036-282000-
   NORTH CENTRAL IOWA

CITY           SKY/WX    TMP DP  RH WIND       PRES   REMARKS
ALGONA *       SUNNY     43  21  42 S17G25    30.17F
CLARION *      SUNNY     43  25  49 SE15G23   30.19F
ESTHERVILLE    SUNNY     43  23  45 S16G26    30.15F
FORT DODGE *   SUNNY     46  19  34 SE10G22   30.19F
MASON CITY     SUNNY     43  19  38 SE13G22   30.21F
FOREST CITY *  SUNNY     41  19  42 S15       30.19F
IOWA FALLS *     N/A     43  19  39 SE12      30.22F
$$

IAZ007>011-017>019-026>030-037>042-050>054-066-282000-
   NORTHEAST IOWA

CITY           SKY/WX    TMP DP  RH WIND       PRES   REMARKS
CEDAR RAPIDS   SUNNY     40  14  34 S12G18    30.26F WCI  33
CHARLES CITY * SUNNY     41  18  38 S13G18    30.23F
CLINTON *      SUNNY     37  12  35 S5        30.34S WCI  34
DECORAH *      SUNNY     34  16  47 VRB7      30.25F WCI  28
DUBUQUE        SUNNY     37  10  32 S9        30.28F WCI  30
MONTICELLO *   SUNNY     39  10  30 VRB7G14   30.28F WCI  34
OELWEIN *      SUNNY     39  16  38 S8G14     30.26F WCI  34
WATERLOO       MOSUNNY   43  15  32 S13       30.24F
$$

IAZ064-065-067-068-078-282000-
   EAST CENTRAL IOWA

CITY           SKY/WX    TMP DP  RH WIND       PRES   REMARKS
DAVENPORT      SUNNY     38   9  30 SE9       30.31F WCI  31
IOWA CITY      SUNNY     41  14  33 S12       30.30F
MT. PLEASANT * SUNNY     41   9  26 SW3       30.28F
MUSCATINE *    SUNNY     41  10  28 SE10      30.30F
QUAD CITIES    SUNNY     39  10  30 MISG      30.31F
$$

IAZ062-063-075>077-085>089-095>099-282000-
   SOUTHEAST IOWA

CITY           SKY/WX    TMP DP  RH WIND       PRES   REMARKS
BURLINGTON     SUNNY     39  13  34 E6        30.29F WCI  35
FAIRFIELD *    SUNNY     43  12  28 S9        30.26F
FORT MADISON * SUNNY     41  16  36 SE9       30.29F
KEOKUK *       SUNNY     41  16  36 VRB7G16   30.28F
OSKALOOSA *      N/A     43  12  28 SE7       30.25S
CENTERVILLE *  SUNNY     45  18  33 E12G17    30.23F
OTTUMWA        SUNNY     44  13  28 SE8       30.24F
WASHINGTON *   SUNNY     41  14  33 S12G18    30.27F
$$

ABBREVIATIONS USED IN REMARKS
   TC - TEMPERATURES IN CELSIUS
  WCI - WIND CHILL INDEX
   HX - HEAT INDEX
  VSB - VISIBILITY
$$



USA.gov is the U.S. government's official web portal to all federal, state and local government web resources and services.